Prague, Czech Republic

6:05 PM CET on January 23, 2018 (GMT +0100)
Ruzyne

Weather History for LKPR - November, 2011

Change the Weather History Date:

Thursday, November 24, 2011

  Actual Average Record
Temperature  
Mean Temperature 30 °F -  
Max Temperature 32 °F 37 °F 55 °F (2006)
Min Temperature 29 °F 27 °F 21 °F (1999)
Degree Days  
Heating Degree Days 34    
Moisture  
Dew Point 30 °F    
Average Humidity 99    
Maximum Humidity 100    
Minimum Humidity 93    
Precipitation  
Precipitation 0.00 in 0.04 in - ()
Sea Level Pressure  
Sea Level Pressure 30.52 in    
Wind  
Wind Speed 4 mph ()    
Max Wind Speed 6 mph    
Max Gust Speed -    
Visibility 0.5 miles    
Events Fog    
Averages and records for this station are not official NWS values.
T = Trace of Precipitation, MM = Missing Value Source: Averaged Metar Reports

Daily Weather History Graph

Daily Weather History Graph

Search for Another Location

Airport or City:

Trip Planner

Search our weather history database for the weather conditions in past years. The results will help you decide how hot, cold, wet, or windy it might be!

Date:

Astronomy

Nov. 24, 2011 Rise Set
Actual Time 7:29 AM CET 4:09 PM CET
Civil Twilight 6:52 AM CET 4:45 PM CET
Nautical Twilight 6:12 AM CET 5:25 PM CET
Astronomical Twilight 5:33 AM CET 6:04 PM CET
Moon 6:26 AM CET (11/24) 3:22 PM CET (11/24)
Length of Visible Light 9h 53m
Length of Day
8h 39m
Waning Crescent, 1% of the Moon is Illuminated
Nov 24
Waning Crescent
Nov 25
New
Dec 2
First Quarter
Dec 10
Full
Dec 18
Last Quarter

Hourly Weather History & Observations

Time (CET) Temp. Windchill Dew Point Humidity Pressure Visibility Wind Dir Wind Speed Gust Speed Precip Events Conditions
12:00 AM 30.2 °F 26.7 °F 30.2 °F 100% 30.48 in 0.6 mi WSW 3.5 mph - N/A Fog Light Freezing Fog
12:30 AM 30.2 °F 26.7 °F 30.2 °F 100% 30.48 in 0.6 mi WSW 3.5 mph - N/A Fog Light Freezing Fog
1:00 AM 30 °F - 29 °F 95% 30.55 in 1 mi SSW 4.5 mph - - Fog Heavy Fog
1:00 AM 30.2 °F 25.4 °F 30.2 °F 100% 30.48 in 0.6 mi SSW 4.6 mph - N/A Fog Light Freezing Fog
1:30 AM 30.2 °F 25.4 °F 28.4 °F 93% 30.48 in 0.6 mi SW 4.6 mph - N/A Fog Light Freezing Fog
2:00 AM 30.2 °F - 30.2 °F 100% 30.48 in 0.6 mi SW 2.3 mph - N/A Fog Light Freezing Fog
2:30 AM 30.2 °F - 30.2 °F 100% 30.48 in 0.6 mi SSW 2.3 mph - N/A Fog Light Freezing Fog
3:00 AM 30.2 °F 26.7 °F 30.2 °F 100% 30.48 in 0.5 mi South 3.5 mph - N/A Fog Light Freezing Fog
3:30 AM 30.2 °F 24.3 °F 30.2 °F 100% 30.48 in 0.5 mi SW 5.8 mph - N/A Fog Light Freezing Fog
4:00 AM 30.2 °F 26.7 °F 30.2 °F 100% 30.48 in 0.5 mi WSW 3.5 mph - N/A Fog Light Freezing Fog
4:30 AM 30.2 °F - 28.4 °F 93% 30.48 in 0.6 mi Variable 2.3 mph - N/A   Mist
5:00 AM 30.2 °F 26.7 °F 28.4 °F 93% 30.48 in 0.7 mi SSW 3.5 mph - N/A   Overcast
5:30 AM 30.2 °F 25.4 °F 30.2 °F 100% 30.48 in 0.8 mi SW 4.6 mph - N/A   Overcast
6:00 AM 30.2 °F 26.7 °F 30.2 °F 100% 30.51 in 0.8 mi SW 3.5 mph - N/A   Overcast
6:30 AM 30.2 °F 25.4 °F 30.2 °F 100% 30.51 in 0.8 mi SSW 4.6 mph - N/A   Overcast
7:00 AM 30 °F - 29 °F 97% 30.59 in 1 mi SW 4.5 mph - -   Mist
7:00 AM 30.2 °F 25.4 °F 30.2 °F 100% 30.51 in 0.7 mi SW 4.6 mph - N/A   Overcast
7:30 AM 30.2 °F 26.7 °F 30.2 °F 100% 30.51 in 0.4 mi Variable 3.5 mph - N/A Fog Light Freezing Fog
7:50 AM 30.2 °F 26.7 °F 30.2 °F 100% 30.51 in 0.4 mi South 3.5 mph - N/A Fog Light Freezing Fog
8:00 AM 30.2 °F 26.7 °F 30.2 °F 100% 30.51 in 0.4 mi SSW 3.5 mph - N/A Fog Light Freezing Fog
8:10 AM 30.2 °F 24.3 °F 30.2 °F 100% 30.54 in 0.2 mi WSW 5.8 mph - N/A Fog Light Freezing Fog
8:13 AM 30.2 °F 24.3 °F 30.2 °F 100% 30.54 in 0.2 mi WSW 5.8 mph - N/A Fog Light Freezing Fog
8:30 AM 30.2 °F 25.4 °F 30.2 °F 100% 30.54 in 0.2 mi WSW 4.6 mph - N/A Fog Light Freezing Fog
8:44 AM 30.2 °F 24.3 °F 30.2 °F 100% 30.54 in 0.3 mi WSW 5.8 mph - N/A Fog Light Freezing Fog
8:47 AM 30.2 °F 24.3 °F 30.2 °F 100% 30.54 in 0.3 mi WSW 5.8 mph - N/A Fog Light Freezing Fog
8:50 AM 30.2 °F 24.3 °F 30.2 °F 100% 30.54 in 0.2 mi WSW 5.8 mph - N/A Fog Light Freezing Fog
9:00 AM 30.2 °F 25.4 °F 30.2 °F 100% 30.54 in 0.2 mi WSW 4.6 mph - N/A Fog Light Freezing Fog
9:03 AM 30.2 °F 26.7 °F 30.2 °F 100% 30.54 in 0.2 mi WSW 3.5 mph - N/A Fog Light Freezing Fog
9:21 AM 30.2 °F 26.7 °F 30.2 °F 100% 30.54 in 0.2 mi WSW 3.5 mph - N/A Fog Light Freezing Fog
9:30 AM 30.2 °F 25.4 °F 30.2 °F 100% 30.54 in 0.2 mi SW 4.6 mph - N/A Fog Light Freezing Fog
9:34 AM 30.2 °F 25.4 °F 30.2 °F 100% 30.54 in 0.3 mi WSW 4.6 mph - N/A Fog Light Freezing Fog
9:42 AM 30.2 °F 25.4 °F 30.2 °F 100% 30.54 in 0.3 mi SW 4.6 mph - N/A Fog Light Freezing Fog
9:46 AM 30.2 °F 26.7 °F 30.2 °F 100% 30.54 in 0.3 mi WSW 3.5 mph - N/A Fog Light Freezing Fog
10:00 AM 30.2 °F 26.7 °F 30.2 °F 100% 30.54 in 0.3 mi West 3.5 mph - N/A Fog Light Freezing Fog
10:10 AM 30.2 °F 26.7 °F 30.2 °F 100% 30.54 in 0.3 mi WSW 3.5 mph - N/A Fog Light Freezing Fog
10:15 AM 30.2 °F 26.7 °F 30.2 °F 100% 30.54 in 0.3 mi SSW 3.5 mph - N/A Fog Light Freezing Fog
10:30 AM 30.2 °F 26.7 °F 30.2 °F 100% 30.54 in 0.3 mi South 3.5 mph - N/A Fog Light Freezing Fog
10:41 AM 30.2 °F 25.4 °F 30.2 °F 100% 30.54 in 0.3 mi SSE 4.6 mph - N/A Fog Light Freezing Fog
10:50 AM 30.2 °F 25.4 °F 30.2 °F 100% 30.54 in 0.3 mi South 4.6 mph - N/A Fog Light Freezing Fog
11:00 AM 30.2 °F 24.3 °F 30.2 °F 100% 30.54 in 0.3 mi South 5.8 mph - N/A Fog Light Freezing Fog
11:17 AM 30.2 °F 24.3 °F 30.2 °F 100% 30.54 in 0.4 mi SW 5.8 mph - N/A Fog Light Freezing Fog
11:23 AM 30.2 °F 25.4 °F 30.2 °F 100% 30.54 in 0.4 mi WSW 4.6 mph - N/A Fog Light Freezing Fog
11:30 AM 30.2 °F 25.4 °F 30.2 °F 100% 30.54 in 0.4 mi WSW 4.6 mph - N/A Fog Light Freezing Fog
11:33 AM 30.2 °F 26.7 °F 30.2 °F 100% 30.54 in 0.4 mi Variable 3.5 mph - N/A Fog Light Freezing Fog
11:41 AM 30.2 °F 26.7 °F 30.2 °F 100% 30.54 in 0.3 mi Variable 3.5 mph - N/A Fog Fog
12:00 PM 30.2 °F 26.7 °F 30.2 °F 100% 30.54 in 0.4 mi WNW 3.5 mph - N/A Fog Light Freezing Fog
12:17 PM 30.2 °F 25.4 °F 30.2 °F 100% 30.54 in 0.5 mi South 4.6 mph - N/A Fog Light Freezing Fog
12:30 PM 30.2 °F 24.3 °F 30.2 °F 100% 30.54 in 0.4 mi South 5.8 mph - N/A Fog Light Freezing Fog
12:33 PM 30.2 °F 26.7 °F 30.2 °F 100% 30.54 in 0.4 mi Variable 3.5 mph - N/A Fog Light Freezing Fog
12:44 PM 30.2 °F 26.7 °F 30.2 °F 100% 30.54 in 0.4 mi Variable 3.5 mph - N/A Fog Light Freezing Fog
1:00 PM 30 °F - 30 °F 98% 30.62 in 1 mi SSW 4.5 mph - - Fog Fog
1:00 PM 30.2 °F 26.7 °F 30.2 °F 100% 30.54 in 0.6 mi SSE 3.5 mph - N/A Fog Light Freezing Fog
1:10 PM 30.2 °F 26.7 °F 30.2 °F 100% 30.54 in 0.7 mi South 3.5 mph - N/A   Overcast
1:20 PM 30.2 °F 26.7 °F 30.2 °F 100% 30.51 in 0.8 mi South 3.5 mph - N/A   Overcast
1:30 PM 30.2 °F 26.7 °F 30.2 °F 100% 30.51 in 0.9 mi SW 3.5 mph - N/A   Overcast
1:53 PM 30.2 °F 25.4 °F 30.2 °F 100% 30.51 in 1.1 mi South 4.6 mph - N/A   Overcast
2:00 PM 30.2 °F 25.4 °F 30.2 °F 100% 30.51 in 1.2 mi South 4.6 mph - N/A   Overcast
2:19 PM 30.2 °F - 30.2 °F 100% 30.51 in 1.2 mi Variable 2.3 mph - N/A   Overcast
2:30 PM 30.2 °F - 30.2 °F 100% 30.51 in 1.2 mi Variable 2.3 mph - N/A   Overcast
2:32 PM 30.2 °F 26.7 °F 30.2 °F 100% 30.51 in 1.1 mi SSE 3.5 mph - N/A   Overcast
3:00 PM 30.2 °F 26.7 °F 30.2 °F 100% 30.51 in 1.0 mi SW 3.5 mph - N/A   Overcast
3:30 PM 30.2 °F - 30.2 °F 100% 30.51 in 0.7 mi Variable 2.3 mph - N/A   Overcast
4:00 PM 30.2 °F 26.7 °F 30.2 °F 100% 30.51 in 0.7 mi WSW 3.5 mph - N/A   Overcast
4:15 PM 30.2 °F 25.4 °F 30.2 °F 100% 30.51 in 1.2 mi South 4.6 mph - N/A   Overcast
4:30 PM 30.2 °F - 30.2 °F 100% 30.51 in 1.4 mi Variable 2.3 mph - N/A   Overcast
5:00 PM 30.2 °F 26.7 °F 30.2 °F 100% 30.51 in 1.2 mi WSW 3.5 mph - N/A   Overcast
5:30 PM 30.2 °F - 30.2 °F 100% 30.51 in 0.7 mi Variable 2.3 mph - N/A Fog Patches of Fog
5:47 PM 30.2 °F 26.7 °F 30.2 °F 100% 30.51 in 0.6 mi SE 3.5 mph - N/A Fog Patches of Fog
6:00 PM 30.2 °F - 30.2 °F 100% 30.51 in 0.6 mi Variable 2.3 mph - N/A Fog Patches of Fog
6:15 PM 30.2 °F - 30.2 °F 100% 30.54 in 0.4 mi Variable 2.3 mph - N/A Fog Light Freezing Fog
6:20 PM 30.2 °F 26.7 °F 30.2 °F 100% 30.51 in 0.4 mi South 3.5 mph - N/A Fog Light Freezing Fog
6:30 PM 32.0 °F 28.7 °F 30.2 °F 93% 30.54 in 0.5 mi South 3.5 mph - N/A Fog Light Freezing Fog
6:49 PM 30.2 °F 26.7 °F 30.2 °F 100% 30.54 in 0.5 mi South 3.5 mph - N/A Fog Light Freezing Fog
7:00 PM 31 °F - 31 °F 97% 30.61 in 0 mi South 2.2 mph - - Fog Fog
7:00 PM 30.2 °F 26.7 °F 30.2 °F 100% 30.54 in 0.4 mi South 3.5 mph - N/A Fog Light Freezing Fog
7:08 PM 32.0 °F 28.7 °F 30.2 °F 93% 30.54 in 0.4 mi SSW 3.5 mph - N/A Fog Light Freezing Fog
7:23 PM 32.0 °F - 30.2 °F 93% 30.54 in 0.4 mi Variable 2.3 mph - N/A Fog Light Freezing Fog
7:30 PM 32.0 °F - 30.2 °F 93% 30.54 in 0.4 mi Variable 2.3 mph - N/A Fog Light Freezing Fog
8:00 PM 30.2 °F - 30.2 °F 100% 30.54 in 0.3 mi Variable 2.3 mph - N/A Fog Light Freezing Fog
8:30 PM 32.0 °F 28.7 °F 30.2 °F 93% 30.54 in 0.3 mi West 3.5 mph - N/A Fog Light Freezing Fog
9:00 PM 30.2 °F 26.7 °F 30.2 °F 100% 30.54 in 0.2 mi WNW 3.5 mph - N/A Fog Light Freezing Fog
9:30 PM 30.2 °F - 30.2 °F 100% 30.51 in 0.2 mi Variable 1.2 mph - N/A Fog Light Freezing Fog
10:00 PM 30.2 °F 25.4 °F 30.2 °F 100% 30.51 in 0.2 mi East 4.6 mph - N/A Fog Light Freezing Fog
10:30 PM 30.2 °F - 30.2 °F 100% 30.51 in 0.2 mi South 2.3 mph - N/A Fog Light Freezing Fog
11:00 PM 30.2 °F - 30.2 °F 100% 30.51 in 0.2 mi Variable 2.3 mph - N/A Fog Light Freezing Fog
11:30 PM 30.2 °F - 30.2 °F 100% 30.51 in 0.2 mi Variable 2.3 mph - N/A Fog Light Freezing Fog